Location: Waco, TX
(31.5480°N, 97.1670°W)
Time: 03:09:07
(UTC-05:00)

ISS - Pass Details

Date: 19 September 2017
Orbit: 401 x 407 km, 51.6° (Epoch: 22 September)

Event Time Altitude Azimuth Distance (km) Brightness Sun altitude
Rises 22:23:04 0° 224° (SW) 2,304 - -36.5°
Reaches altitude 10° 22:25:07 10° 225° (SW) 1,449 - -36.9°
Maximum altitude 22:28:22 87° 314° (NW) 407 - -37.5°
Drops below altitude 10° 22:31:39 10° 44° (NE) 1,460 - -38.1°
Sets 22:33:44 0° 45° (NE) 2,324 - -38.5°
